Weather History for Hibbing, MN

Change the Weather History Date:

Saturday, January 5, 2013

  Actual Average Record
Temperature  
Mean Temperature 14 °F -  
Max Temperature 26 °F 15 °F 46 °F (2012)
Min Temperature 1 °F -4 °F -32 °F (2005)
Degree Days  
Heating Degree Days 52    
Moisture  
Dew Point 8 °F    
Average Humidity 82    
Maximum Humidity 88    
Minimum Humidity 74    
Precipitation  
Precipitation 0.00 in - - ()
Sea Level Pressure  
Sea Level Pressure 29.99 in    
Wind  
Wind Speed 2 mph (North)    
Max Wind Speed 13 mph    
Max Gust Speed -    
Visibility 6 miles    
Events Fog , Snow    
Averages and records for this station are not official NWS values.
T = Trace of Precipitation, MM = Missing Value Source: NWS Daily Summary

Daily Weather History Graph

Daily Weather History Graph

Search for Another Location

Airport:

Trip Planner

Search our weather history database for the weather conditions in past years. The results will help you decide how hot, cold, wet, or windy it might be!

Date:

Astronomy

Jan. 05, 2013 Rise Set
Actual Time 7:58 AM CST 4:35 PM CST
Civil Twilight 7:22 AM CST 5:11 PM CST
Nautical Twilight 6:44 AM CST 5:50 PM CST
Astronomical Twilight 6:07 AM CST 6:27 PM CST
Moon 12:50 AM CST (1/5) 11:38 AM CST (1/5)
Length of Visible Light 9h 48m
Length of Day
8h 37m
Last Quarter, 44% of the Moon is Illuminated
Jan 5
Last Quarter
Jan 11
New
Jan 18
First Quarter
Jan 26
Full
Feb 3
Last Quarter

Hourly Weather History & Observations

Time (CST) Temp. Windchill Dew Point Humidity Pressure Visibility Wind Dir Wind Speed Gust Speed Precip Events Conditions
12:08 AM 3.2 °F - -0.4 °F 85% 30.05 in 0.2 mi Calm Calm - N/A Fog Light Freezing Fog
12:53 AM 3.9 °F - -0.0 °F 84% 30.14 in 0.2 mi Calm Calm - N/A Fog Light Freezing Fog
1:53 AM 3.9 °F - 1.0 °F 88% 30.12 in 0.5 mi Calm Calm - N/A Fog Light Freezing Fog
2:44 AM 3.2 °F - -0.4 °F 85% 30.03 in 2.0 mi Calm Calm - N/A   Overcast
2:53 AM 5.0 °F - 1.0 °F 84% 30.12 in 8.0 mi Calm Calm - N/A   Overcast
3:53 AM 3.9 °F - -0.0 °F 84% 30.11 in 10.0 mi Calm Calm - N/A   Overcast
3:59 AM 5.0 °F -2.1 °F -0.4 °F 78% 30.02 in 1.8 mi NW 3.5 mph - N/A   Haze
4:15 AM 5.0 °F - 1.4 °F 85% 30.01 in 0.2 mi Calm Calm - N/A Fog Light Freezing Fog
4:23 AM 5.0 °F - 1.4 °F 85% 30.01 in 0.5 mi Calm Calm - N/A Fog Light Freezing Fog
4:53 AM 5.0 °F - -0.0 °F 80% 30.08 in 0.5 mi Calm Calm - N/A   Haze
5:23 AM 3.2 °F - -0.4 °F 85% 29.97 in 1.0 mi Calm Calm - N/A   Overcast
5:32 AM 5.0 °F - 1.4 °F 85% 29.97 in 2.5 mi Calm Calm - N/A   Overcast
5:41 AM 6.8 °F -0.1 °F 1.4 °F 79% 29.97 in 7.0 mi NW 3.5 mph - N/A   Overcast
5:53 AM 6.1 °F -0.9 °F -0.0 °F 76% 30.05 in 6.0 mi NNW 3.5 mph - N/A   Haze
6:01 AM 5.0 °F - 1.4 °F 85% 29.96 in 1.5 mi Calm Calm - N/A   Overcast
6:53 AM 1.9 °F -5.6 °F -2.9 °F 80% 30.04 in 1.0 mi NNW 3.5 mph - N/A   Haze
6:58 AM 3.2 °F - -2.2 °F 78% 29.94 in 2.0 mi Calm Calm - N/A   Haze
7:06 AM 3.2 °F - -2.2 °F 78% 29.94 in 9.0 mi Calm Calm - 0.00 in Snow Light Snow
7:53 AM 1.9 °F - -2.0 °F 83% 30.03 in 9.0 mi Calm Calm - 0.00 in Snow Light Snow
8:28 AM 1.4 °F - -4.0 °F 78% 29.93 in 10.0 mi Calm Calm - 0.00 in Snow Light Snow
8:36 AM 1.4 °F - -2.2 °F 85% 29.94 in 9.0 mi Calm Calm - 0.00 in Snow Light Snow
8:44 AM 3.2 °F - -0.4 °F 85% 29.94 in 10.0 mi Calm Calm - 0.00 in Snow Light Snow
8:51 AM 6.8 °F - 1.4 °F 79% 29.94 in 1.5 mi Calm Calm - 0.00 in Snow Light Snow
8:53 AM 8.1 °F 1.4 °F 3.0 °F 80% 30.05 in 1.0 mi North 3.5 mph - 0.00 in Snow Light Snow
9:00 AM 10.4 °F 4.0 °F 6.8 °F 85% 29.94 in 0.5 mi North 3.5 mph - 0.00 in Snow Snow
9:09 AM 14.0 °F - 10.4 °F 86% 29.94 in 2.0 mi Calm Calm - 0.00 in   Overcast
9:17 AM 15.8 °F - 12.2 °F 86% 29.94 in 10.0 mi Calm Calm - 0.00 in   Overcast
9:25 AM 15.8 °F - 12.2 °F 86% 29.94 in 10.0 mi Calm Calm - 0.00 in   Overcast
9:53 AM 19.9 °F 13.4 °F 16.0 °F 85% 30.02 in 9.0 mi East 4.6 mph - 0.00 in Snow Light Snow
10:10 AM 21.2 °F 12.6 °F 17.6 °F 86% 29.92 in 9.0 mi ESE 6.9 mph - 0.00 in Snow Light Snow
10:45 AM 23.0 °F 17.0 °F 19.4 °F 86% 29.91 in 10.0 mi East 4.6 mph - 0.00 in   Mostly Cloudy
10:53 AM 24.1 °F 17.0 °F 19.0 °F 81% 30.00 in 10.0 mi ENE 5.8 mph - 0.00 in   Mostly Cloudy
11:37 AM 24.8 °F 16.9 °F 19.4 °F 80% 29.89 in 10.0 mi East 6.9 mph - N/A   Scattered Clouds
11:53 AM 25.0 °F - 19.9 °F 81% 29.98 in 10.0 mi Calm Calm - N/A   Mostly Cloudy
12:53 PM 26.1 °F 19.4 °F 19.9 °F 78% 29.94 in 10.0 mi NE 5.8 mph - N/A   Overcast
1:53 PM 26.1 °F 16.8 °F 19.9 °F 78% 29.93 in 10.0 mi NNE 9.2 mph - N/A   Overcast
2:53 PM 25.0 °F 14.8 °F 19.9 °F 81% 29.93 in 10.0 mi North 10.4 mph - N/A   Overcast
3:50 PM 24.8 °F 17.9 °F 19.4 °F 80% 29.85 in 10.0 mi North 5.8 mph - N/A   Overcast
3:53 PM 25.0 °F 18.1 °F 19.9 °F 81% 29.94 in 10.0 mi North 5.8 mph - N/A   Overcast
5:53 PM 21.0 °F 12.4 °F 16.0 °F 81% 29.98 in 10.0 mi North 6.9 mph - N/A   Overcast
6:53 PM 18.0 °F 6.9 °F 14.0 °F 84% 30.01 in 10.0 mi NNW 9.2 mph - N/A   Overcast
7:53 PM 18.0 °F 9.8 °F 14.0 °F 84% 30.02 in 10.0 mi North 5.8 mph - N/A   Overcast
8:53 PM 19.0 °F 8.2 °F 14.0 °F 81% 30.03 in 10.0 mi NNW 9.2 mph - N/A   Overcast
9:53 PM 19.0 °F 10.0 °F 15.1 °F 85% 30.02 in 10.0 mi NNW 6.9 mph - N/A   Overcast
10:53 PM 19.0 °F 8.2 °F 14.0 °F 81% 30.02 in 10.0 mi NNW 9.2 mph - N/A   Overcast
11:44 PM 19.4 °F 6.6 °F 12.2 °F 74% 29.95 in 10.0 mi NNW 12.7 mph - N/A   Overcast
11:53 PM 19.0 °F 7.5 °F 12.9 °F 77% 30.03 in 10.0 mi NNW 10.4 mph - N/A   Overcast